Time,TemperatureF,DewpointF,PressureIn,WindDirection,WindDirectionDegrees,WindSpeedMPH,WindSpeedGustMPH,Humidity,HourlyPrecipIn,Conditions,Clouds,dailyrainin,SoftwareType,DateUTC
2013-01-26 00:00:00,12.3,7.3,30.07,West,259,1.2,3.5,80,0.00,,,0.00,WeatherDisplay:10.37,2013-01-26 05:00:00,
2013-01-26 00:01:00,12.2,7.2,30.07,WSW,248,2.2,3.5,80,0.00,,,0.00,WeatherDisplay:10.37,2013-01-26 05:01:00,
2013-01-26 00:06:00,12.2,6.9,30.07,NW,307,2.1,3.5,79,0.00,,,0.00,WeatherDisplay:10.37,2013-01-26 05:06:00,
2013-01-26 00:11:00,12.1,6.8,30.06,NW,311,1.3,2.3,79,0.00,,,0.00,WeatherDisplay:10.37,2013-01-26 05:11:00,
2013-01-26 00:16:00,12.1,6.8,30.06,West,265,0.7,2.3,79,0.00,,,0.00,WeatherDisplay:10.37,2013-01-26 05:16:00,
2013-01-26 00:21:00,12.1,6.8,30.06,West,265,1.1,2.3,79,0.00,,,0.00,WeatherDisplay:10.37,2013-01-26 05:21:00,
2013-01-26 00:26:00,12.0,6.7,30.06,NW,317,1.0,2.3,79,0.00,,,0.00,WeatherDisplay:10.37,2013-01-26 05:26:00,
2013-01-26 00:31:00,12.0,7.0,30.06,West,266,0.4,3.5,80,0.00,,,0.00,WeatherDisplay:10.37,2013-01-26 05:31:00,
2013-01-26 00:36:00,12.0,7.0,30.06,West,266,0.0,0.0,80,0.00,,,0.00,WeatherDisplay:10.37,2013-01-26 05:36:00,
2013-01-26 00:41:00,12.0,7.0,30.06,West,269,0.2,3.5,80,0.00,,,0.00,WeatherDisplay:10.37,2013-01-26 05:41:00,
2013-01-26 00:46:00,12.0,7.0,30.05,West,269,1.0,3.5,80,0.00,,,0.00,WeatherDisplay:10.37,2013-01-26 05:46:00,
2013-01-26 00:51:00,11.9,6.9,30.05,WNW,296,0.9,2.3,80,0.00,,,0.00,WeatherDisplay:10.37,2013-01-26 05:51:00,
2013-01-26 00:56:00,11.8,6.8,30.05,WNW,296,0.4,2.0,80,0.00,,,0.00,WeatherDisplay:10.37,2013-01-26 05:56:00,
2013-01-26 01:01:00,11.8,7.1,30.05,WNW,296,0.5,2.3,81,0.00,,,0.00,WeatherDisplay:10.37,2013-01-26 06:01:00,
2013-01-26 01:06:00,11.8,6.8,30.05,NW,312,0.8,2.3,80,0.00,,,0.00,WeatherDisplay:10.37,2013-01-26 06:06:00,
2013-01-26 01:11:00,11.8,7.1,30.05,West,267,2.4,4.6,81,0.00,,,0.00,WeatherDisplay:10.37,2013-01-26 06:11:00,
2013-01-26 01:16:00,11.8,7.1,30.05,West,267,0.0,1.0,81,0.00,,,0.00,WeatherDisplay:10.37,2013-01-26 06:16:00,
2013-01-26 01:21:00,11.8,7.1,30.05,NW,311,0.4,1.1,81,0.00,,,0.00,WeatherDisplay:10.37,2013-01-26 06:21:00,
2013-01-26 01:26:00,11.8,6.8,30.05,West,264,1.7,2.3,80,0.00,,,0.00,WeatherDisplay:10.37,2013-01-26 06:26:00,
2013-01-26 01:31:00,11.7,6.7,30.05,West,264,0.2,2.3,80,0.00,,,0.00,WeatherDisplay:10.37,2013-01-26 06:31:00,
2013-01-26 01:36:00,11.7,7.0,30.05,NW,319,1.3,2.3,81,0.00,,,0.00,WeatherDisplay:10.37,2013-01-26 06:36:00,
2013-01-26 01:41:00,11.7,6.7,30.05,West,263,1.5,3.5,80,0.00,,,0.00,WeatherDisplay:10.37,2013-01-26 06:41:00,
2013-01-26 01:46:00,11.6,6.6,30.05,NW,324,1.5,2.3,80,0.00,,,0.00,WeatherDisplay:10.37,2013-01-26 06:46:00,
2013-01-26 01:51:00,11.6,6.6,30.05,NW,316,1.4,3.5,80,0.00,,,0.00,WeatherDisplay:10.37,2013-01-26 06:51:00,
2013-01-26 01:56:00,11.6,6.3,30.05,West,260,0.9,2.3,79,0.00,,,0.00,WeatherDisplay:10.37,2013-01-26 06:56:00,
2013-01-26 02:01:00,11.5,6.5,30.05,NW,307,1.4,2.3,80,0.00,,,0.00,WeatherDisplay:10.37,2013-01-26 07:01:00,
2013-01-26 02:06:00,11.5,6.2,30.04,WNW,303,1.1,2.0,79,0.00,,,0.00,WeatherDisplay:10.37,2013-01-26 07:06:00,
2013-01-26 02:11:00,11.4,6.2,30.04,WNW,285,2.3,4.0,79,0.00,,,0.00,WeatherDisplay:10.37,2013-01-26 07:11:00,
2013-01-26 02:16:00,11.3,6.3,30.04,WNW,291,1.7,3.5,80,0.00,,,0.00,WeatherDisplay:10.37,2013-01-26 07:16:00,
2013-01-26 02:21:00,11.2,6.2,30.04,NW,319,0.3,1.1,80,0.00,,,0.00,WeatherDisplay:10.37,2013-01-26 07:21:00,
2013-01-26 02:26:00,11.2,6.0,30.04,West,279,0.8,2.3,79,0.00,,,0.00,WeatherDisplay:10.37,2013-01-26 07:26:00,
2013-01-26 02:31:00,11.1,5.9,30.04,West,279,0.0,1.1,79,0.00,,,0.00,WeatherDisplay:10.37,2013-01-26 07:31:00,
2013-01-26 02:36:00,11.1,5.6,30.04,WNW,302,1.0,2.3,78,0.00,,,0.00,WeatherDisplay:10.37,2013-01-26 07:36:00,
2013-01-26 02:41:00,11.0,5.8,30.04,WNW,302,0.8,2.3,79,0.00,,,0.00,WeatherDisplay:10.37,2013-01-26 07:41:00,
2013-01-26 02:46:00,10.9,5.4,30.04,NW,305,0.6,1.1,78,0.00,,,0.00,WeatherDisplay:10.37,2013-01-26 07:46:00,
2013-01-26 02:51:00,10.8,5.6,30.03,NW,305,1.8,2.3,79,0.00,,,0.00,WeatherDisplay:10.37,2013-01-26 07:51:00,
2013-01-26 02:56:00,10.7,4.9,30.03,West,278,0.9,2.3,77,0.00,,,0.00,WeatherDisplay:10.37,2013-01-26 07:56:00,
2013-01-26 03:01:00,10.6,4.8,30.03,NW,307,2.0,3.5,77,0.00,,,0.00,WeatherDisplay:10.37,2013-01-26 08:01:00,
2013-01-26 03:06:00,10.6,4.5,30.03,West,263,0.5,2.3,76,0.00,,,0.00,WeatherDisplay:10.37,2013-01-26 08:06:00,
2013-01-26 03:11:00,10.6,4.8,30.03,West,263,0.0,0.0,77,0.00,,,0.00,WeatherDisplay:10.37,2013-01-26 08:11:00,
2013-01-26 03:16:00,10.5,4.4,30.03,West,263,0.0,0.0,76,0.00,,,0.00,WeatherDisplay:10.37,2013-01-26 08:16:00,
2013-01-26 03:21:00,10.4,4.6,30.03,West,263,0.0,0.0,77,0.00,,,0.00,WeatherDisplay:10.37,2013-01-26 08:21:00,
2013-01-26 03:26:00,10.3,4.5,30.03,West,263,0.0,0.0,77,0.00,,,0.00,WeatherDisplay:10.37,2013-01-26 08:26:00,
2013-01-26 03:31:00,10.2,4.7,30.03,West,263,0.0,1.0,78,0.00,,,0.00,WeatherDisplay:10.37,2013-01-26 08:31:00,
2013-01-26 03:36:00,10.1,4.6,30.03,West,263,0.4,1.1,78,0.00,,,0.00,WeatherDisplay:10.37,2013-01-26 08:36:00,
2013-01-26 03:41:00,10.1,4.6,30.03,West,263,0.7,3.5,78,0.69,RA,,0.69,WeatherDisplay:10.37,2013-01-26 08:41:00,
2013-01-26 03:46:00,10.1,4.3,30.03,WNW,293,1.3,2.3,77,0.69,RA,,0.69,WeatherDisplay:10.37,2013-01-26 08:46:00,
2013-01-26 03:51:00,10.1,4.6,30.03,WNW,293,1.0,2.3,78,0.69,,,0.69,WeatherDisplay:10.37,2013-01-26 08:51:00,
2013-01-26 03:56:00,10.0,4.5,30.03,WSW,240,2.0,3.5,78,0.69,,,0.69,WeatherDisplay:10.37,2013-01-26 08:56:00,
2013-01-26 04:01:00,10.1,4.3,30.03,WSW,256,0.6,2.3,77,0.69,,,0.69,WeatherDisplay:10.37,2013-01-26 09:01:00,
2013-01-26 04:06:00,10.0,4.2,30.03,NW,323,1.4,3.0,77,0.69,,,0.69,WeatherDisplay:10.37,2013-01-26 09:06:00,
2013-01-26 04:11:00,10.0,3.9,30.03,WNW,295,0.8,2.3,76,0.69,,,0.69,WeatherDisplay:10.37,2013-01-26 09:11:00,
2013-01-26 04:16:00,9.9,3.8,30.03,WNW,295,0.0,1.1,76,0.69,,,0.69,WeatherDisplay:10.37,2013-01-26 09:16:00,
2013-01-26 04:21:00,9.9,3.8,30.03,WNW,295,0.9,3.0,76,0.69,,,0.69,WeatherDisplay:10.37,2013-01-26 09:21:00,
2013-01-26 04:26:00,9.9,3.8,30.03,WNW,284,1.2,2.3,76,0.69,,,0.69,WeatherDisplay:10.37,2013-01-26 09:26:00,
2013-01-26 04:31:00,9.9,3.6,30.03,WNW,289,0.8,2.3,75,0.69,,,0.69,WeatherDisplay:10.37,2013-01-26 09:31:00,
2013-01-26 04:36:00,9.9,3.8,30.03,WNW,289,0.9,2.3,76,0.69,,,0.69,WeatherDisplay:10.37,2013-01-26 09:36:00,
2013-01-26 04:41:00,9.8,3.2,30.02,West,265,1.1,3.5,74,0.00,,,0.69,WeatherDisplay:10.37,2013-01-26 09:41:00,
2013-01-26 04:46:00,9.8,3.5,30.02,West,265,0.3,1.1,75,0.00,,,0.69,WeatherDisplay:10.37,2013-01-26 09:46:00,
2013-01-26 04:51:00,9.7,3.4,30.02,West,265,0.7,2.3,75,0.00,,,0.69,WeatherDisplay:10.37,2013-01-26 09:51:00,
2013-01-26 04:56:00,9.6,3.3,30.02,West,265,1.8,2.3,75,0.00,,,0.69,WeatherDisplay:10.37,2013-01-26 09:56:00,
2013-01-26 05:01:00,9.4,3.4,30.02,West,265,0.9,1.1,76,0.00,,,0.69,WeatherDisplay:10.37,2013-01-26 10:01:00,
2013-01-26 05:06:00,9.4,3.1,30.02,West,265,0.3,0.0,75,0.00,,,0.69,WeatherDisplay:10.37,2013-01-26 10:06:00,
2013-01-26 05:11:00,9.3,3.3,30.02,West,265,0.5,1.1,76,0.00,,,0.69,WeatherDisplay:10.37,2013-01-26 10:11:00,
2013-01-26 05:16:00,9.3,3.3,30.02,NW,311,0.7,2.3,76,0.00,,,0.69,WeatherDisplay:10.37,2013-01-26 10:16:00,
2013-01-26 05:21:00,9.2,2.9,30.03,West,271,1.5,3.5,75,0.00,,,0.69,WeatherDisplay:10.37,2013-01-26 10:21:00,
2013-01-26 05:26:00,9.1,2.8,30.03,West,271,0.0,0.0,75,0.00,,,0.69,WeatherDisplay:10.37,2013-01-26 10:26:00,
2013-01-26 05:31:00,9.0,3.0,30.03,West,271,0.9,2.3,76,0.00,,,0.69,WeatherDisplay:10.37,2013-01-26 10:31:00,
2013-01-26 05:36:00,9.0,2.7,30.03,WNW,299,0.3,2.3,75,0.00,,,0.69,WeatherDisplay:10.37,2013-01-26 10:36:00,
2013-01-26 05:41:00,8.9,2.6,30.03,SW,234,0.3,4.6,75,0.00,,,0.69,WeatherDisplay:10.37,2013-01-26 10:41:00,
2013-01-26 05:46:00,8.9,2.6,30.03,WNW,295,0.4,1.1,75,0.00,,,0.69,WeatherDisplay:10.37,2013-01-26 10:46:00,
2013-01-26 05:51:00,8.8,2.5,30.04,WNW,295,1.2,1.2,75,0.00,,,0.69,WeatherDisplay:10.37,2013-01-26 10:51:00,
2013-01-26 05:56:00,8.8,2.5,30.04,WNW,300,1.4,2.3,75,0.00,,,0.69,WeatherDisplay:10.37,2013-01-26 10:56:00,
2013-01-26 06:01:00,8.8,2.5,30.04,WNW,299,1.9,2.3,75,0.00,,,0.69,WeatherDisplay:10.37,2013-01-26 11:01:00,
2013-01-26 06:06:00,8.8,2.5,30.04,NW,314,0.8,2.3,75,0.00,,,0.69,WeatherDisplay:10.37,2013-01-26 11:06:00,
2013-01-26 06:11:00,8.7,2.4,30.05,NW,314,0.0,0.0,75,0.00,,,0.69,WeatherDisplay:10.37,2013-01-26 11:11:00,
2013-01-26 06:16:00,8.7,2.4,30.05,West,270,1.5,2.3,75,0.00,,,0.69,WeatherDisplay:10.37,2013-01-26 11:16:00,
2013-01-26 06:21:00,8.6,2.3,30.05,WNW,302,1.2,3.5,75,0.00,,,0.69,WeatherDisplay:10.37,2013-01-26 11:21:00,
2013-01-26 06:26:00,8.6,2.3,30.05,West,279,1.6,3.5,75,0.00,,,0.69,WeatherDisplay:10.37,2013-01-26 11:26:00,
2013-01-26 06:31:00,8.5,2.5,30.05,NW,310,1.2,1.2,76,0.00,,,0.69,WeatherDisplay:10.37,2013-01-26 11:31:00,
2013-01-26 06:36:00,8.4,2.4,30.06,WSW,251,1.7,2.3,76,0.00,,,0.69,WeatherDisplay:10.37,2013-01-26 11:36:00,
2013-01-26 06:41:00,8.4,2.4,30.06,WNW,300,2.3,3.5,76,0.00,,,0.69,WeatherDisplay:10.37,2013-01-26 11:41:00,
2013-01-26 06:46:00,8.4,2.1,30.06,NW,306,0.3,2.3,75,0.00,,,0.69,WeatherDisplay:10.37,2013-01-26 11:46:00,
2013-01-26 06:51:00,8.3,2.3,30.06,WNW,294,0.7,3.5,76,0.00,,,0.69,WeatherDisplay:10.37,2013-01-26 11:51:00,
2013-01-26 06:56:00,8.3,2.0,30.06,WNW,288,1.0,3.5,75,0.00,,,0.69,WeatherDisplay:10.37,2013-01-26 11:56:00,
2013-01-26 07:01:00,8.3,2.0,30.06,West,274,1.7,3.5,75,0.00,,,0.69,WeatherDisplay:10.37,2013-01-26 12:01:00,
2013-01-26 07:06:00,8.3,2.0,30.07,WNW,303,1.9,3.5,75,0.00,,,0.69,WeatherDisplay:10.37,2013-01-26 12:06:00,
2013-01-26 07:11:00,8.1,2.1,30.07,WNW,284,0.5,3.5,76,0.00,,,0.69,WeatherDisplay:10.37,2013-01-26 12:11:00,
2013-01-26 07:16:00,8.0,2.0,30.07,NW,306,1.5,3.0,76,0.00,,,0.69,WeatherDisplay:10.37,2013-01-26 12:16:00,
2013-01-26 07:21:00,8.1,1.8,30.07,West,281,1.8,3.5,75,0.00,,,0.69,WeatherDisplay:10.37,2013-01-26 12:21:00,
2013-01-26 07:26:00,8.1,1.8,30.07,NW,309,1.4,3.5,75,0.00,,,0.69,WeatherDisplay:10.37,2013-01-26 12:26:00,
2013-01-26 07:31:00,8.1,1.8,30.07,WNW,297,1.9,4.6,75,0.00,,,0.69,WeatherDisplay:10.37,2013-01-26 12:31:00,
2013-01-26 07:36:00,8.1,1.8,30.07,WNW,284,1.9,3.5,75,0.00,,,0.69,WeatherDisplay:10.37,2013-01-26 12:36:00,
2013-01-26 07:41:00,8.1,2.1,30.07,West,274,1.7,2.3,76,0.00,,,0.69,WeatherDisplay:10.37,2013-01-26 12:41:00,
2013-01-26 07:46:00,8.1,2.1,30.07,West,268,1.8,3.5,76,0.00,,,0.69,WeatherDisplay:10.37,2013-01-26 12:46:00,
2013-01-26 07:51:00,8.1,1.8,30.07,West,280,1.7,2.3,75,0.00,CLR,,0.69,WeatherDisplay:10.37,2013-01-26 12:51:00,
2013-01-26 07:56:00,8.0,1.7,30.08,WNW,288,1.0,2.3,75,0.00,CLR,,0.69,WeatherDisplay:10.37,2013-01-26 12:56:00,
2013-01-26 08:02:00,8.1,1.8,30.07,NNW,344,2.3,3.5,75,0.00,CLR,,0.69,WeatherDisplay:10.37,2013-01-26 13:02:00,
2013-01-26 08:07:00,8.1,1.8,30.07,SW,227,2.7,4.6,75,0.00,CLR,,0.69,WeatherDisplay:10.37,2013-01-26 13:07:00,
2013-01-26 08:12:00,8.2,1.6,30.08,WNW,290,1.9,3.5,74,0.00,CLR,,0.69,WeatherDisplay:10.37,2013-01-26 13:12:00,
2013-01-26 08:17:00,8.3,1.4,30.08,West,270,2.6,3.5,73,0.00,CLR,,0.69,WeatherDisplay:10.37,2013-01-26 13:17:00,
2013-01-26 08:22:00,8.5,1.6,30.08,West,275,3.2,5.8,73,0.00,CLR,,0.69,WeatherDisplay:10.37,2013-01-26 13:22:00,
2013-01-26 08:27:00,8.6,1.7,30.08,WNW,300,1.8,3.5,73,0.00,CLR,,0.69,WeatherDisplay:10.37,2013-01-26 13:27:00,
2013-01-26 08:32:00,8.7,1.8,30.08,North,355,2.4,3.5,73,0.00,CLR,,0.69,WeatherDisplay:10.37,2013-01-26 13:32:00,
2013-01-26 08:37:00,8.8,1.9,30.08,NW,322,0.8,4.6,73,0.00,CLR,,0.69,WeatherDisplay:10.37,2013-01-26 13:37:00,
2013-01-26 08:42:00,8.9,1.4,30.08,West,269,2.7,3.5,71,0.00,CLR,,0.69,WeatherDisplay:10.37,2013-01-26 13:42:00,
2013-01-26 08:47:00,9.1,1.3,30.08,NW,304,3.7,6.9,70,0.00,CLR,,0.69,WeatherDisplay:10.37,2013-01-26 13:47:00,
2013-01-26 08:52:00,9.4,1.3,30.08,WSW,246,4.7,6.9,69,0.00,CLR,,0.69,WeatherDisplay:10.37,2013-01-26 13:52:00,
2013-01-26 08:57:00,9.6,1.2,30.09,WNW,298,1.1,3.5,68,0.00,CLR,,0.69,WeatherDisplay:10.37,2013-01-26 13:57:00,
2013-01-26 09:02:00,9.7,1.2,30.09,NNW,336,1.2,2.3,68,0.00,CLR,,0.69,WeatherDisplay:10.37,2013-01-26 14:02:00,
2013-01-26 09:07:00,9.8,1.3,30.09,NW,315,1.1,3.5,68,0.00,CLR,,0.69,WeatherDisplay:10.37,2013-01-26 14:07:00,
2013-01-26 09:12:00,9.9,0.8,30.09,NW,316,1.8,3.5,66,0.00,CLR,,0.69,WeatherDisplay:10.37,2013-01-26 14:12:00,
2013-01-26 09:17:00,10.1,1.0,30.09,WNW,301,3.2,3.5,66,0.00,CLR,,0.69,WeatherDisplay:10.37,2013-01-26 14:17:00,
2013-01-26 09:22:00,10.3,0.9,30.09,WNW,291,1.3,3.5,65,0.00,CLR,,0.69,WeatherDisplay:10.37,2013-01-26 14:22:00,
2013-01-26 09:27:00,10.4,1.0,30.09,WSW,242,1.5,6.0,65,0.00,CLR,,0.69,WeatherDisplay:10.37,2013-01-26 14:27:00,
2013-01-26 09:32:00,10.6,0.5,30.09,West,265,3.0,5.0,63,0.00,CLR,,0.69,WeatherDisplay:10.37,2013-01-26 14:32:00,
2013-01-26 09:37:00,10.7,0.9,30.09,WSW,239,1.5,3.5,64,0.00,CLR,,0.69,WeatherDisplay:10.37,2013-01-26 14:37:00,
2013-01-26 09:42:00,10.7,0.6,30.09,NW,317,2.5,4.6,63,0.00,CLR,,0.69,WeatherDisplay:10.37,2013-01-26 14:42:00,
2013-01-26 09:47:00,10.9,0.8,30.09,NW,307,3.4,5.8,63,0.00,CLR,,0.69,WeatherDisplay:10.37,2013-01-26 14:47:00,
2013-01-26 09:52:00,11.3,0.4,30.09,WNW,301,1.9,3.5,61,0.00,,,0.69,WeatherDisplay:10.37,2013-01-26 14:52:00,
2013-01-26 09:57:00,11.4,0.5,30.09,NW,317,3.1,4.6,61,0.00,,,0.69,WeatherDisplay:10.37,2013-01-26 14:57:00,
2013-01-26 10:02:00,11.4,0.5,30.10,SW,224,3.2,5.8,61,0.00,,,0.69,WeatherDisplay:10.37,2013-01-26 15:02:00,
2013-01-26 10:07:00,11.5,0.6,30.10,WNW,288,3.5,4.0,61,0.00,,,0.69,WeatherDisplay:10.37,2013-01-26 15:07:00,
2013-01-26 10:12:00,11.6,0.7,30.10,West,263,1.7,3.5,61,0.00,,,0.69,WeatherDisplay:10.37,2013-01-26 15:12:00,
2013-01-26 10:17:00,11.7,0.5,30.10,WNW,300,2.2,5.8,60,0.00,,,0.69,WeatherDisplay:10.37,2013-01-26 15:17:00,
2013-01-26 10:22:00,11.9,0.3,30.10,NW,304,1.8,6.9,59,0.00,,,0.69,WeatherDisplay:10.37,2013-01-26 15:22:00,
2013-01-26 10:27:00,11.9,-0.1,30.10,NW,317,2.4,4.6,58,0.00,,,0.69,WeatherDisplay:10.37,2013-01-26 15:27:00,
2013-01-26 10:32:00,12.1,-0.2,30.10,West,271,2.7,5.8,57,0.00,,,0.69,WeatherDisplay:10.37,2013-01-26 15:32:00,
2013-01-26 10:37:00,12.4,-0.3,30.10,WNW,296,4.2,5.8,56,0.00,,,0.69,WeatherDisplay:10.37,2013-01-26 15:37:00,
2013-01-26 10:42:00,12.7,-0.4,30.09,NW,319,3.3,5.0,55,0.00,,,0.69,WeatherDisplay:10.37,2013-01-26 15:42:00,
2013-01-26 10:47:00,13.0,-0.6,30.09,North,11,2.3,3.5,54,0.00,,,0.69,WeatherDisplay:10.37,2013-01-26 15:47:00,
2013-01-26 10:52:00,13.2,-1.2,30.09,NE,34,3.5,4.6,52,0.00,,,0.69,WeatherDisplay:10.37,2013-01-26 15:52:00,
2013-01-26 10:57:00,13.3,-1.1,30.08,NNW,340,0.0,1.1,52,0.00,,,0.69,WeatherDisplay:10.37,2013-01-26 15:57:00,
2013-01-26 11:02:00,13.5,-1.3,30.08,NW,319,1.7,3.5,51,0.00,,,0.69,WeatherDisplay:10.37,2013-01-26 16:02:00,
2013-01-26 11:07:00,13.7,-1.1,30.08,NW,323,1.9,4.0,51,0.00,,,0.69,WeatherDisplay:10.37,2013-01-26 16:07:00,
2013-01-26 11:12:00,13.9,-1.3,30.08,WNW,302,2.3,3.5,50,0.00,,,0.69,WeatherDisplay:10.37,2013-01-26 16:12:00,
2013-01-26 11:17:00,14.2,-1.5,30.08,WNW,289,2.9,5.8,49,0.00,,,0.69,WeatherDisplay:10.37,2013-01-26 16:17:00,
2013-01-26 11:22:00,14.4,-1.7,30.08,SW,228,2.2,4.6,48,0.00,,,0.69,WeatherDisplay:10.37,2013-01-26 16:22:00,
2013-01-26 11:27:00,14.6,-1.1,30.08,WNW,282,3.0,4.6,49,0.00,,,0.69,WeatherDisplay:10.37,2013-01-26 16:27:00,
2013-01-26 11:32:00,14.8,-1.8,30.08,West,280,4.3,6.9,47,0.00,,,0.69,WeatherDisplay:10.37,2013-01-26 16:32:00,
2013-01-26 11:37:00,14.6,-1.6,30.07,WNW,283,4.4,8.1,48,0.00,,,0.69,WeatherDisplay:10.37,2013-01-26 16:37:00,
2013-01-26 11:42:00,14.6,-2.0,30.07,WNW,293,3.0,4.6,47,0.00,,,0.69,WeatherDisplay:10.37,2013-01-26 16:42:00,
2013-01-26 11:47:00,14.7,-2.4,30.07,WNW,282,4.5,10.4,46,0.00,,,0.69,WeatherDisplay:10.37,2013-01-26 16:47:00,
2013-01-26 11:52:00,14.8,-2.7,30.07,WNW,303,2.6,5.8,45,0.00,,,0.69,WeatherDisplay:10.37,2013-01-26 16:52:00,
2013-01-26 11:57:00,14.9,-2.6,30.07,WSW,258,3.7,5.8,45,0.00,,,0.69,WeatherDisplay:10.37,2013-01-26 16:57:00,
2013-01-26 12:02:00,15.1,-2.0,30.07,WNW,295,2.2,5.8,46,0.00,,,0.69,WeatherDisplay:10.37,2013-01-26 17:02:00,
2013-01-26 12:07:00,15.2,-2.8,30.06,WNW,303,3.2,9.2,44,0.00,,,0.69,WeatherDisplay:10.37,2013-01-26 17:07:00,
2013-01-26 12:12:00,15.3,-2.3,30.07,West,261,4.5,8.0,45,0.00,,,0.69,WeatherDisplay:10.37,2013-01-26 17:12:00,
2013-01-26 12:17:00,15.2,-3.3,30.06,WNW,299,2.8,4.6,43,0.00,,,0.69,WeatherDisplay:10.37,2013-01-26 17:17:00,
2013-01-26 12:22:00,15.4,-3.1,30.07,NW,321,4.0,9.0,43,0.00,,,0.69,WeatherDisplay:10.37,2013-01-26 17:22:00,
2013-01-26 12:27:00,15.6,-3.0,30.07,NNW,328,2.9,6.9,43,0.00,,,0.69,WeatherDisplay:10.37,2013-01-26 17:27:00,
2013-01-26 12:32:00,15.8,-2.8,30.06,NNW,344,3.5,8.1,43,0.00,,,0.69,WeatherDisplay:10.37,2013-01-26 17:32:00,
2013-01-26 12:37:00,16.2,-1.9,30.06,West,273,3.3,5.8,44,0.00,,,0.69,WeatherDisplay:10.37,2013-01-26 17:37:00,
2013-01-26 12:42:00,16.6,-1.1,30.06,WSW,254,3.7,6.9,45,0.00,,,0.69,WeatherDisplay:10.37,2013-01-26 17:42:00,
2013-01-26 12:47:00,16.7,-0.5,30.06,WSW,253,3.8,4.6,46,0.00,,,0.69,WeatherDisplay:10.37,2013-01-26 17:47:00,
2013-01-26 12:52:00,16.6,-1.1,30.06,WNW,294,2.4,3.5,45,0.00,,,0.69,WeatherDisplay:10.37,2013-01-26 17:52:00,
2013-01-26 12:57:00,16.5,-1.2,30.06,West,269,4.0,5.8,45,0.00,,,0.69,WeatherDisplay:10.37,2013-01-26 17:57:00,
2013-01-26 13:02:00,16.4,-1.7,30.06,West,268,5.3,9.2,44,0.00,,,0.69,WeatherDisplay:10.37,2013-01-26 18:02:00,
2013-01-26 13:07:00,16.4,-1.3,30.06,NNW,341,3.7,5.8,45,0.00,,,0.69,WeatherDisplay:10.37,2013-01-26 18:07:00,
2013-01-26 13:12:00,16.3,-1.8,30.06,WNW,292,5.1,8.1,44,0.00,,,0.69,WeatherDisplay:10.37,2013-01-26 18:12:00,
2013-01-26 13:17:00,16.4,-1.7,30.06,NW,311,4.0,6.9,44,0.00,,,0.69,WeatherDisplay:10.37,2013-01-26 18:17:00,
2013-01-26 13:22:00,16.6,-2.5,30.06,WSW,250,4.3,9.2,42,0.00,,,0.69,WeatherDisplay:10.37,2013-01-26 18:22:00,
2013-01-26 13:27:00,16.7,-3.0,30.06,WNW,294,2.9,5.8,41,0.00,,,0.69,WeatherDisplay:10.37,2013-01-26 18:27:00,
2013-01-26 13:32:00,17.0,-2.7,30.05,West,279,5.1,8.1,41,0.00,,,0.69,WeatherDisplay:10.37,2013-01-26 18:32:00,
2013-01-26 13:37:00,17.1,-3.1,30.05,NW,306,2.8,5.8,40,0.00,,,0.69,WeatherDisplay:10.37,2013-01-26 18:37:00,
2013-01-26 13:42:00,17.3,-1.9,30.05,WNW,298,4.3,4.6,42,0.00,,,0.69,WeatherDisplay:10.37,2013-01-26 18:42:00,
2013-01-26 13:47:00,17.5,-3.3,30.06,WNW,288,3.0,5.8,39,0.00,,,0.69,WeatherDisplay:10.37,2013-01-26 18:47:00,
2013-01-26 13:52:00,17.5,-3.8,30.06,WSW,242,6.0,10.4,38,0.00,,,0.69,WeatherDisplay:10.37,2013-01-26 18:52:00,
2013-01-26 13:57:00,17.4,-2.8,30.06,NNE,31,3.9,7.0,40,0.00,,,0.69,WeatherDisplay:10.37,2013-01-26 18:57:00,
2013-01-26 14:02:00,17.3,-4.0,30.06,WSW,243,3.9,6.0,38,0.00,,,0.69,WeatherDisplay:10.37,2013-01-26 19:02:00,
2013-01-26 14:07:00,17.3,-4.0,30.06,WSW,244,5.1,10.0,38,0.00,,,0.69,WeatherDisplay:10.37,2013-01-26 19:07:00,
2013-01-26 14:12:00,17.3,-4.0,30.06,West,262,2.8,5.8,38,0.00,,,0.69,WeatherDisplay:10.37,2013-01-26 19:12:00,
2013-01-26 14:17:00,17.3,-2.9,30.07,NW,305,2.1,5.8,40,0.00,,,0.69,WeatherDisplay:10.37,2013-01-26 19:17:00,
2013-01-26 14:22:00,17.3,-4.6,30.07,WNW,294,4.4,11.5,37,0.00,,,0.69,WeatherDisplay:10.37,2013-01-26 19:22:00,
2013-01-26 14:27:00,17.3,-4.6,30.07,WNW,282,2.5,5.8,37,0.00,,,0.69,WeatherDisplay:10.37,2013-01-26 19:27:00,
2013-01-26 14:32:00,17.5,-4.4,30.08,NW,306,6.1,9.2,37,0.00,,,0.69,WeatherDisplay:10.37,2013-01-26 19:32:00,
2013-01-26 14:37:00,17.5,-3.3,30.08,WSW,245,5.9,10.0,39,0.00,,,0.69,WeatherDisplay:10.37,2013-01-26 19:37:00,
2013-01-26 14:42:00,17.5,-3.8,30.08,NW,306,2.3,3.5,38,0.00,,,0.69,WeatherDisplay:10.37,2013-01-26 19:42:00,
2013-01-26 14:47:00,17.6,-4.3,30.08,NNW,336,6.3,10.4,37,0.00,,,0.69,WeatherDisplay:10.37,2013-01-26 19:47:00,
2013-01-26 14:52:00,17.8,-4.7,30.08,West,261,6.2,8.1,36,0.00,,,0.69,WeatherDisplay:10.37,2013-01-26 19:52:00,
2013-01-26 14:57:00,17.9,-4.0,30.08,NNW,327,3.8,6.9,37,0.00,,,0.69,WeatherDisplay:10.37,2013-01-26 19:57:00,
2013-01-26 15:02:00,18.2,-3.8,30.08,NW,316,5.1,6.9,37,0.00,,,0.69,WeatherDisplay:10.37,2013-01-26 20:02:00,
2013-01-26 15:07:00,18.1,-3.9,30.08,NW,305,3.2,8.1,37,0.00,,,0.69,WeatherDisplay:10.37,2013-01-26 20:07:00,
2013-01-26 15:12:00,18.0,-3.9,30.09,West,281,3.7,5.8,37,0.00,,,0.69,WeatherDisplay:10.37,2013-01-26 20:12:00,
2013-01-26 15:17:00,18.1,-3.3,30.10,NNW,330,5.4,8.1,38,0.00,,,0.69,WeatherDisplay:10.37,2013-01-26 20:17:00,
2013-01-26 15:22:00,18.1,-3.3,30.10,WNW,288,5.1,8.1,38,0.00,,,0.69,WeatherDisplay:10.37,2013-01-26 20:22:00,
2013-01-26 15:27:00,17.8,-4.1,30.10,NW,304,3.0,4.6,37,0.00,,,0.69,WeatherDisplay:10.37,2013-01-26 20:27:00,
2013-01-26 15:32:00,17.6,-4.9,30.10,NW,320,2.6,3.5,36,0.00,,,0.69,WeatherDisplay:10.37,2013-01-26 20:32:00,
2013-01-26 15:37:00,17.5,-3.8,30.10,North,350,3.1,4.6,38,0.00,,,0.69,WeatherDisplay:10.37,2013-01-26 20:37:00,
2013-01-26 15:42:00,17.5,-4.4,30.10,WNW,289,4.2,5.8,37,0.00,,,0.69,WeatherDisplay:10.37,2013-01-26 20:42:00,
2013-01-26 15:47:00,17.6,-3.7,30.10,WNW,300,4.2,9.2,38,0.00,,,0.69,WeatherDisplay:10.37,2013-01-26 20:47:00,
2013-01-26 15:52:00,17.6,-4.9,30.11,NW,306,3.0,6.9,36,0.00,CLR,,0.69,WeatherDisplay:10.37,2013-01-26 20:52:00,
2013-01-26 15:57:00,17.6,-3.2,30.10,NW,304,3.4,3.5,39,0.00,CLR,,0.69,WeatherDisplay:10.37,2013-01-26 20:57:00,
2013-01-26 16:02:00,17.5,-5.0,30.11,NW,316,4.2,8.1,36,0.00,CLR,,0.69,WeatherDisplay:10.37,2013-01-26 21:02:00,
2013-01-26 16:07:00,17.3,-4.0,30.11,NW,321,4.8,9.2,38,0.00,CLR,,0.69,WeatherDisplay:10.37,2013-01-26 21:07:00,
2013-01-26 16:12:00,17.2,-4.1,30.11,NW,313,2.4,3.5,38,0.00,CLR,,0.69,WeatherDisplay:10.37,2013-01-26 21:12:00,
2013-01-26 16:17:00,17.1,-3.6,30.11,WNW,298,4.6,13.0,39,0.00,CLR,,0.69,WeatherDisplay:10.37,2013-01-26 21:17:00,
2013-01-26 16:22:00,17.1,-3.6,30.12,WNW,301,4.0,5.8,39,0.00,CLR,,0.69,WeatherDisplay:10.37,2013-01-26 21:22:00,
2013-01-26 16:27:00,17.0,-3.7,30.12,NW,311,3.4,4.6,39,0.00,CLR,,0.69,WeatherDisplay:10.37,2013-01-26 21:27:00,
2013-01-26 16:33:00,16.8,-2.9,30.12,SSW,206,2.9,3.5,41,0.00,CLR,,0.69,WeatherDisplay:10.37,2013-01-26 21:33:00,
2013-01-26 16:38:00,16.7,-4.6,30.12,SW,216,2.9,5.0,38,0.00,CLR,,0.69,WeatherDisplay:10.37,2013-01-26 21:38:00,
2013-01-26 16:43:00,16.6,-5.2,30.13,West,275,4.1,5.8,37,0.00,CLR,,0.69,WeatherDisplay:10.37,2013-01-26 21:43:00,
2013-01-26 16:48:00,16.3,-3.8,30.13,West,277,2.1,4.6,40,0.00,CLR,,0.69,WeatherDisplay:10.37,2013-01-26 21:48:00,
2013-01-26 16:53:00,16.1,-6.8,30.13,NW,304,5.5,9.2,35,0.00,CLR,,0.69,WeatherDisplay:10.37,2013-01-26 21:53:00,
2013-01-26 16:58:00,15.9,-6.4,30.13,NW,309,3.8,5.8,36,0.00,CLR,,0.69,WeatherDisplay:10.37,2013-01-26 21:58:00,
2013-01-26 17:03:00,15.7,-7.2,30.14,West,272,5.4,6.9,35,0.00,CLR,,0.69,WeatherDisplay:10.37,2013-01-26 22:03:00,
2013-01-26 17:08:00,15.6,-7.2,30.14,WNW,300,2.7,4.6,35,0.00,CLR,,0.69,WeatherDisplay:10.37,2013-01-26 22:08:00,
2013-01-26 17:13:00,15.4,-6.3,30.14,West,259,3.7,7.0,37,0.00,CLR,,0.69,WeatherDisplay:10.37,2013-01-26 22:13:00,
2013-01-26 17:18:00,15.3,-6.9,30.14,West,277,4.3,6.9,36,0.00,CLR,,0.69,WeatherDisplay:10.37,2013-01-26 22:18:00,
2013-01-26 17:23:00,15.3,-6.9,30.14,NW,323,5.0,11.5,36,0.00,CLR,,0.69,WeatherDisplay:10.37,2013-01-26 22:23:00,
2013-01-26 17:28:00,15.2,-7.0,30.15,NW,304,3.2,4.6,36,0.00,CLR,,0.69,WeatherDisplay:10.37,2013-01-26 22:28:00,
2013-01-26 17:33:00,15.1,-6.0,30.15,WSW,242,2.4,4.6,38,0.00,CLR,,0.69,WeatherDisplay:10.37,2013-01-26 22:33:00,
2013-01-26 17:38:00,14.9,-6.2,30.15,NW,326,4.6,9.2,38,0.00,CLR,,0.69,WeatherDisplay:10.37,2013-01-26 22:38:00,
2013-01-26 17:43:00,14.8,-6.3,30.15,NNE,25,3.2,4.6,38,0.00,CLR,,0.69,WeatherDisplay:10.37,2013-01-26 22:43:00,
2013-01-26 17:48:00,14.7,-6.4,30.16,WNW,296,3.4,4.6,38,0.00,CLR,,0.69,WeatherDisplay:10.37,2013-01-26 22:48:00,
2013-01-26 17:53:00,14.6,-5.9,30.16,West,265,2.4,3.5,39,0.00,CLR,,0.69,WeatherDisplay:10.37,2013-01-26 22:53:00,
2013-01-26 17:58:00,14.4,-5.6,30.17,NW,321,3.9,5.0,40,0.00,CLR,,0.69,WeatherDisplay:10.37,2013-01-26 22:58:00,
2013-01-26 18:03:00,14.4,-5.1,30.16,NE,36,8.0,9.2,41,0.00,CLR,,0.69,WeatherDisplay:10.37,2013-01-26 23:03:00,
2013-01-26 18:08:00,14.3,-4.6,30.17,North,355,2.9,4.6,42,0.00,CLR,,0.69,WeatherDisplay:10.37,2013-01-26 23:08:00,
2013-01-26 18:13:00,14.2,-4.2,30.17,WNW,297,3.9,6.9,43,0.00,CLR,,0.69,WeatherDisplay:10.37,2013-01-26 23:13:00,
2013-01-26 18:18:00,14.1,-3.9,30.17,NW,326,3.5,5.0,44,0.00,CLR,,0.69,WeatherDisplay:10.37,2013-01-26 23:18:00,
2013-01-26 18:23:00,14.0,-3.5,30.17,West,259,3.9,5.8,45,0.00,CLR,,0.69,WeatherDisplay:10.37,2013-01-26 23:23:00,
2013-01-26 18:28:00,13.8,-3.2,30.17,WSW,257,1.8,3.5,46,0.00,CLR,,0.69,WeatherDisplay:10.37,2013-01-26 23:28:00,
2013-01-26 18:33:00,13.7,-3.3,30.17,NNW,327,2.6,3.5,46,0.00,CLR,,0.69,WeatherDisplay:10.37,2013-01-26 23:33:00,
2013-01-26 18:38:00,13.5,-3.0,30.17,West,272,2.2,3.5,47,0.00,CLR,,0.69,WeatherDisplay:10.37,2013-01-26 23:38:00,
2013-01-26 18:43:00,13.4,-3.1,30.17,NNW,336,1.8,3.5,47,0.00,CLR,,0.69,WeatherDisplay:10.37,2013-01-26 23:43:00,
2013-01-26 18:48:00,13.3,-2.8,30.17,WSW,255,0.8,1.1,48,0.00,CLR,,0.69,WeatherDisplay:10.37,2013-01-26 23:48:00,
2013-01-26 18:53:00,13.1,-2.9,30.18,WSW,245,2.1,7.0,48,0.00,CLR,,0.69,WeatherDisplay:10.37,2013-01-26 23:53:00,
2013-01-26 18:58:00,13.2,-2.4,30.17,NW,313,1.8,3.5,49,0.00,CLR,,0.69,WeatherDisplay:10.37,2013-01-26 23:58:00,
2013-01-26 19:03:00,13.0,-2.2,30.17,NW,316,2.2,3.5,50,0.00,CLR,,0.69,WeatherDisplay:10.37,2013-01-27 00:03:00,
2013-01-26 19:08:00,12.9,-2.3,30.17,West,266,1.6,3.5,50,0.00,CLR,,0.69,WeatherDisplay:10.37,2013-01-27 00:08:00,
2013-01-26 19:13:00,12.8,-1.9,30.17,WNW,300,3.9,8.1,51,0.00,CLR,,0.69,WeatherDisplay:10.37,2013-01-27 00:13:00,
2013-01-26 19:18:00,12.9,-1.9,30.17,WNW,300,3.1,4.6,51,0.00,CLR,,0.69,WeatherDisplay:10.37,2013-01-27 00:18:00,
2013-01-26 19:23:00,12.8,-1.1,30.17,West,279,4.3,5.8,53,0.00,CLR,,0.69,WeatherDisplay:10.37,2013-01-27 00:23:00,
2013-01-26 19:28:00,12.8,-1.1,30.17,West,270,3.9,4.6,53,0.00,CLR,,0.69,WeatherDisplay:10.37,2013-01-27 00:28:00,
2013-01-26 19:33:00,12.8,-1.1,30.17,WNW,297,4.6,8.1,53,0.00,CLR,,0.69,WeatherDisplay:10.37,2013-01-27 00:33:00,
2013-01-26 19:38:00,12.8,-0.7,30.17,WSW,255,2.9,3.5,54,0.00,CLR,,0.69,WeatherDisplay:10.37,2013-01-27 00:38:00,
2013-01-26 19:43:00,12.6,-0.9,30.17,WSW,252,3.8,5.8,54,0.00,CLR,,0.69,WeatherDisplay:10.37,2013-01-27 00:43:00,
2013-01-26 19:48:00,12.6,-0.9,30.18,West,279,3.5,4.0,54,0.00,CLR,,0.69,WeatherDisplay:10.37,2013-01-27 00:48:00,
2013-01-26 19:53:00,12.6,-0.9,30.17,NW,306,3.4,4.6,54,0.00,CLR,,0.69,WeatherDisplay:10.37,2013-01-27 00:53:00,
2013-01-26 19:58:00,12.5,-0.6,30.17,WNW,296,3.1,3.5,55,0.00,CLR,,0.69,WeatherDisplay:10.37,2013-01-27 00:58:00,
2013-01-26 20:03:00,12.5,-0.2,30.18,WSW,257,2.7,5.8,56,0.00,CLR,,0.69,WeatherDisplay:10.37,2013-01-27 01:03:00,
2013-01-26 20:08:00,12.5,0.5,30.18,SW,224,2.5,4.6,58,0.00,CLR,,0.69,WeatherDisplay:10.37,2013-01-27 01:08:00,
2013-01-26 20:13:00,12.5,0.1,30.18,West,276,3.1,4.6,57,0.00,CLR,,0.69,WeatherDisplay:10.37,2013-01-27 01:13:00,
2013-01-26 20:18:00,12.3,0.3,30.18,WNW,290,4.3,5.0,58,0.00,CLR,,0.69,WeatherDisplay:10.37,2013-01-27 01:18:00,
2013-01-26 20:23:00,12.3,0.3,30.18,WNW,289,3.7,4.6,58,0.00,CLR,,0.69,WeatherDisplay:10.37,2013-01-27 01:23:00,
2013-01-26 20:28:00,12.1,0.5,30.18,WNW,284,3.8,7.0,59,0.00,CLR,,0.69,WeatherDisplay:10.37,2013-01-27 01:28:00,
2013-01-26 20:33:00,12.1,0.5,30.18,West,260,2.8,5.8,59,0.00,CLR,,0.69,WeatherDisplay:10.37,2013-01-27 01:33:00,
2013-01-26 20:38:00,12.1,0.9,30.18,WNW,290,5.0,6.9,60,0.00,CLR,,0.69,WeatherDisplay:10.37,2013-01-27 01:38:00,
2013-01-26 20:43:00,12.2,0.9,30.19,WNW,285,4.9,8.1,60,0.00,CLR,,0.69,WeatherDisplay:10.37,2013-01-27 01:43:00,
2013-01-26 20:48:00,12.1,0.9,30.19,NW,304,2.4,3.5,60,0.00,CLR,,0.69,WeatherDisplay:10.37,2013-01-27 01:48:00,
2013-01-26 20:53:00,12.1,1.2,30.19,NW,310,1.8,3.5,61,0.00,,,0.69,WeatherDisplay:10.37,2013-01-27 01:53:00,
2013-01-26 20:58:00,12.0,1.1,30.19,WSW,258,4.6,7.0,61,0.00,,,0.69,WeatherDisplay:10.37,2013-01-27 01:58:00,
2013-01-26 21:03:00,12.2,1.3,30.18,WNW,291,1.9,4.6,61,0.00,,,0.69,WeatherDisplay:10.37,2013-01-27 02:03:00,
2013-01-26 21:08:00,12.0,1.5,30.19,NW,304,3.1,6.0,62,0.00,,,0.69,WeatherDisplay:10.37,2013-01-27 02:08:00,
2013-01-26 21:13:00,12.0,1.5,30.19,West,273,1.8,3.5,62,0.00,,,0.69,WeatherDisplay:10.37,2013-01-27 02:13:00,
2013-01-26 21:18:00,11.9,1.7,30.19,WNW,301,3.4,5.0,63,0.00,,,0.69,WeatherDisplay:10.37,2013-01-27 02:18:00,
2013-01-26 21:23:00,11.9,1.7,30.19,WSW,255,3.7,5.0,63,0.00,,,0.69,WeatherDisplay:10.37,2013-01-27 02:23:00,
2013-01-26 21:28:00,12.1,1.9,30.19,WNW,294,2.3,4.6,63,0.00,,,0.69,WeatherDisplay:10.37,2013-01-27 02:28:00,
2013-01-26 21:33:00,12.1,1.9,30.19,WSW,246,3.9,5.0,63,0.00,,,0.69,WeatherDisplay:10.37,2013-01-27 02:33:00,
2013-01-26 21:38:00,12.2,2.0,30.19,NW,315,3.8,5.0,63,0.00,,,0.69,WeatherDisplay:10.37,2013-01-27 02:38:00,
2013-01-26 21:43:00,12.0,2.1,30.19,West,281,2.3,6.9,64,0.00,,,0.69,WeatherDisplay:10.37,2013-01-27 02:43:00,
2013-01-26 21:48:00,11.9,2.0,30.19,WNW,290,3.6,5.8,64,0.00,,,0.69,WeatherDisplay:10.37,2013-01-27 02:48:00,
2013-01-26 21:53:00,11.9,2.4,30.19,NW,310,4.5,6.9,65,0.00,,,0.69,WeatherDisplay:10.37,2013-01-27 02:53:00,
2013-01-26 21:58:00,12.0,2.5,30.20,WNW,291,3.6,4.0,65,0.00,,,0.69,WeatherDisplay:10.37,2013-01-27 02:58:00,
2013-01-26 22:03:00,12.0,2.5,30.19,NNW,327,3.1,7.0,65,0.00,,,0.69,WeatherDisplay:10.37,2013-01-27 03:03:00,
2013-01-26 22:08:00,11.8,2.3,30.20,WNW,293,2.5,3.0,65,0.00,,,0.69,WeatherDisplay:10.37,2013-01-27 03:08:00,
2013-01-26 22:13:00,11.8,2.6,30.20,WNW,302,2.9,4.6,66,0.00,,,0.69,WeatherDisplay:10.37,2013-01-27 03:13:00,
2013-01-26 22:18:00,12.0,2.5,30.20,West,269,2.8,4.6,65,0.00,,,0.69,WeatherDisplay:10.37,2013-01-27 03:18:00,
2013-01-26 22:23:00,11.9,2.4,30.21,WNW,289,2.7,3.5,65,0.00,,,0.69,WeatherDisplay:10.37,2013-01-27 03:23:00,
2013-01-26 22:28:00,11.8,2.6,30.20,NW,306,2.1,3.5,66,0.00,,,0.69,WeatherDisplay:10.37,2013-01-27 03:28:00,
2013-01-26 22:33:00,11.8,2.6,30.21,WNW,303,3.1,5.8,66,0.00,,,0.69,WeatherDisplay:10.37,2013-01-27 03:33:00,
2013-01-26 22:38:00,11.9,3.0,30.21,NW,325,2.4,4.6,67,0.00,,,0.69,WeatherDisplay:10.37,2013-01-27 03:38:00,
2013-01-26 22:43:00,11.9,3.0,30.21,West,279,3.3,5.8,67,0.00,,,0.69,WeatherDisplay:10.37,2013-01-27 03:43:00,
2013-01-26 22:48:00,11.9,3.0,30.21,WNW,282,3.8,5.0,67,0.00,,,0.69,WeatherDisplay:10.37,2013-01-27 03:48:00,
2013-01-26 22:53:00,12.1,3.2,30.21,WNW,296,7.5,10.4,67,0.00,,,0.69,WeatherDisplay:10.37,2013-01-27 03:53:00,
2013-01-26 22:58:00,12.5,3.6,30.21,West,269,4.8,8.1,67,0.00,,,0.69,WeatherDisplay:10.37,2013-01-27 03:58:00,
2013-01-26 23:03:00,12.5,3.6,30.21,WNW,302,2.4,6.9,67,0.00,,,0.69,WeatherDisplay:10.37,2013-01-27 04:03:00,
2013-01-26 23:08:00,12.4,3.5,30.22,WNW,294,3.8,9.2,67,0.00,,,0.69,WeatherDisplay:10.37,2013-01-27 04:08:00,
2013-01-26 23:13:00,12.5,3.6,30.22,NW,307,4.0,5.8,67,0.00,,,0.69,WeatherDisplay:10.37,2013-01-27 04:13:00,
2013-01-26 23:18:00,12.5,3.6,30.22,SSE,149,1.1,3.5,67,0.00,,,0.69,WeatherDisplay:10.37,2013-01-27 04:18:00,
2013-01-26 23:23:00,12.3,3.4,30.22,WNW,300,1.7,4.6,67,0.00,,,0.69,WeatherDisplay:10.37,2013-01-27 04:23:00,
2013-01-26 23:28:00,12.3,3.7,30.22,WNW,296,1.0,3.5,68,0.00,,,0.69,WeatherDisplay:10.37,2013-01-27 04:28:00,
2013-01-26 23:33:00,12.3,3.7,30.22,NNW,329,2.4,3.5,68,0.00,,,0.69,WeatherDisplay:10.37,2013-01-27 04:33:00,
2013-01-26 23:38:00,12.3,3.7,30.22,WSW,258,3.7,5.8,68,0.00,,,0.69,WeatherDisplay:10.37,2013-01-27 04:38:00,
2013-01-26 23:43:00,12.4,3.5,30.23,NNE,26,1.5,4.6,67,0.00,,,0.69,WeatherDisplay:10.37,2013-01-27 04:43:00,
2013-01-26 23:48:00,12.4,3.8,30.22,North,355,3.7,5.8,68,0.00,,,0.69,WeatherDisplay:10.37,2013-01-27 04:48:00,
2013-01-26 23:53:00,12.4,3.8,30.22,WSW,251,2.6,3.5,68,0.00,,,0.69,WeatherDisplay:10.37,2013-01-27 04:53:00,
2013-01-26 23:58:00,12.3,3.7,30.22,NNW,338,1.6,3.5,68,0.00,,,0.69,WeatherDisplay:10.37,2013-01-27 04:58:00,